Location: Aragüita
(10.0436°N, 67.8028°W)
Time: 15:23:08
(UTC+00:00)

Delta 7925 Rocket - Visible Passes

Search period start: 16 July 2024 00:00
Search period end: 26 July 2024 00:00
Orbit: 645 x 1644 km, 26.3° (Epoch: 15 July)

Date Brightness Start Highest point End Pass type
(mag) Time Alt. Az. Time Alt. Az. Time Alt. Az.
16 Jul 5.4 00:30:48 10° SW 00:39:55 36° SSE 00:40:46 35° SE visible
16 Jul 6.6 02:26:40 10° WSW 02:29:00 19° WSW 02:29:00 19° WSW visible
16 Jul 5.9 08:22:43 10° NNW 08:25:53 15° N 08:28:46 10° NE visible
16 Jul 5.7 23:54:09 10° SSW 00:03:04 33° SSE 00:07:51 22° ESE visible
17 Jul 5.6 01:49:40 10° WSW 01:56:04 43° SW 01:56:04 43° SW visible
17 Jul 6.0 07:47:46 14° NNW 07:49:36 16° N 07:52:50 10° NE visible
17 Jul 5.1 09:41:23 10° NW 09:45:46 28° NNE 09:49:47 10° ENE visible
17 Jul 5.8 23:17:38 10° SSW 23:26:12 30° SSE 23:34:30 10° E visible
18 Jul 4.8 01:12:45 10° SW 01:23:06 72° SSE 01:23:14 72° SE visible
18 Jul 6.9 03:10:21 10° W 03:11:30 14° W 03:11:30 14° W visible
18 Jul 6.0 07:13:56 17° N 07:13:56 17° N 07:16:56 10° NE visible
18 Jul 5.3 09:05:03 10° NW 09:09:38 26° NNE 09:13:41 10° ENE visible
19 Jul 4.9 00:35:55 10° SW 00:46:15 66° SSE 00:50:26 38° E visible
19 Jul 6.0 02:33:10 10° W 02:38:42 34° W 02:38:42 34° W visible
19 Jul 6.5 06:40:14 13° NE 06:40:14 13° NE 06:41:02 10° NE visible
19 Jul 5.4 08:28:36 10° NW 08:33:27 26° NNE 08:37:37 10° ENE visible
19 Jul 5.1 23:59:12 10° SW 00:09:22 61° SSE 00:17:38 16° ENE visible
20 Jul 5.2 01:56:02 10° WSW 02:05:52 62° NNW 02:05:52 62° NNW visible
20 Jul 5.5 07:54:51 20° NNW 07:57:12 25° NNE 08:01:35 10° ENE visible
20 Jul 3.6 09:47:30 10° WNW 09:52:54 71° NNE 09:57:34 10° ESE visible
20 Jul 5.3 23:22:36 10° SW 23:32:28 55° SSE 23:42:18 10° ENE visible
21 Jul 5.1 01:18:59 10° WSW 01:29:22 68° NNW 01:32:59 43° NE visible
21 Jul 6.7 03:17:49 10° WNW 03:21:13 21° WNW 03:21:13 21° WNW visible
21 Jul 5.6 07:21:27 25° NNE 07:21:27 25° NNE 07:25:34 10° ENE visible
21 Jul 3.9 09:11:02 10° WNW 09:16:50 62° NNE 09:21:37 10° ESE visible
22 Jul 5.2 00:42:04 10° WSW 00:52:27 75° NNW 00:59:58 20° ENE visible
22 Jul 6.0 02:40:30 10° W 02:48:11 36° NW 02:48:11 36° NW visible
22 Jul 6.3 06:48:11 16° NE 06:48:11 16° NE 06:49:32 10° ENE visible
22 Jul 4.2 08:36:25 19° NW 08:40:42 55° NNE 08:45:42 10° E visible
23 Jul 5.2 00:05:15 10° WSW 00:15:31 81° NNW 00:25:39 10° ENE visible
23 Jul 5.9 02:03:17 10° W 02:12:48 41° NNW 02:14:58 37° N visible
23 Jul 7.2 04:02:51 10° WNW 04:03:10 11° WNW 04:03:10 11° WNW visible
23 Jul 4.4 08:03:18 45° NNW 08:04:29 51° NNE 08:09:46 10° E visible
23 Jul 3.9 09:54:18 10° W 09:59:40 41° SSW 10:04:12 10° SE visible
23 Jul 5.2 23:28:35 10° WSW 23:38:35 87° NNW 23:48:57 10° ENE visible
24 Jul 5.8 01:26:09 10° W 01:35:53 44° NNW 01:41:33 24° NE visible
24 Jul 6.7 03:25:31 10° WNW 03:29:43 22° NW 03:29:43 22° NW visible
24 Jul 5.2 07:30:18 35° ENE 07:30:18 35° ENE 07:33:48 10° E visible
24 Jul 3.8 09:18:32 14° WNW 09:23:36 51° SSW 09:28:29 10° SE visible
25 Jul 5.8 00:49:08 10° W 00:58:55 48° NNW 01:07:54 12° NE visible
25 Jul 6.3 02:48:13 10° WNW 02:56:05 30° NNW 02:56:05 30° NNW visible
25 Jul 6.4 06:57:20 12° E 06:57:20 12° E 06:57:47 10° E visible
25 Jul 3.7 08:45:35 42° W 08:47:29 61° SSW 08:52:44 10° SE visible
